Tracking 31011 objects as of 13-Jul-2025
HD Live streaming from Space Station
objects crossing your sky now

FENGYUN 1C DEB

Track FENGYUN 1C DEB now!
10-day predictions


NORAD ID: 29801
Int'l Code: 1999-025CT
Perigee: 705.3 km
Apogee: 854.5 km
Inclination: 98.8 °
Period: 100.3 minutes
Semi major axis: 7150 km
RCS: 0.105 m2 (medium)
Launch date: May 10, 1999
Source: People's Republic of China (PRC)
Launch site: Taiyaun Space Center, China (TSC)

Note: This is SATELLITE DEBRIS
Your satellite tracking list
Your tracking list is empty




NASA's NSSDC Master Catalog

Two Line Element Set (TLE):
1 29801U 99025CT  25194.20048240  .00000310  00000-0  11687-3 0  9996
2 29801  98.8063  92.1232 0104315 357.7529 153.5082 14.35688174967640
Source of the keplerian elements: AFSPC